[[{"header":{"parameterUnit":"m.s-1","parameterCategory":2,"la1":30.2991,"la2":30.254,"lo1":-89.0895,"lo2":-89.0444,"dy":0.0017,"dx":0.0017,"nx":28,"ny":28,"refTime":"2024-06-22T21:00:00:Z","depth":"0","parameterNumber":2,"parameterNumberName":"U-component_of_CURRENTS"},"data":[0,0,0,0,0,0,0,0,0,0,0,0,0,0,0,0,0,0,0,0,0,0,0,0,0,0,0,0,0,0,0,0,0,0,0,0,0,0,0,0,0,0,0,0,0,0,0,0,0,0,0,0,0,0,0,0,0,0,-0.2617,-0.2618,0,-0.2698,-0.2698,-0.2699,-0.2653,-0.2652,-0.265,-0.2648,-0.2536,-0.2535,-0.2533,0,0,0,0,0,0,0,0,0,0,0,0,0,-0.2429,-0.2432,-0.2617,-0.2619,-0.262,-0.2698,-0.2699,-0.2699,-0.2654,-0.2652,-0.2649,-0.2647,-0.2536,-0.2535,-0.2533,0,0,0,0,0,0,0,0,0,0,0,0,0,-0.2505,-0.2433,-0.2617,-0.261,-0.2611,-0.2698,-0.2699,-0.2699,-0.2654,-0.2652,-0.2649,-0.2646,-0.2537,-0.2535,-0.2533,-0.2575,0,0,-0.2527,-0.2526,0,0,0,0,0,0,0,0,-0.2501,-0.2512,-0.261,-0.2611,-0.2612,-0.2667,-0.2591,-0.265,-0.2655,-0.2633,-0.2648,-0.2645,-0.2567,-0.2563,-0.2579,-0.2569,-0.2565,-0.2527,-0.2526,-0.2525,-0.2524,0,0,0,0,0,0,0,-0.2496,-0.2508,-0.2644,-0.2612,-0.2613,-0.2606,-0.2613,-0.2603,-0.2606,-0.2634,-0.2632,-0.265,-0.2565,-0.2582,-0.2576,-0.2563,-0.2527,-0.2525,-0.2524,-0.2523,-0.2616,-0.2619,0,0,0,0,0,0,-0.25,-0.2504,-0.2642,-0.2647,-0.2554,-0.2612,-0.262,-0.2648,-0.2611,-0.2606,-0.2653,-0.2648,-0.2586,-0.2578,-0.2572,-0.2628,-0.2525,-0.2523,-0.2522,-0.2612,-0.2617,-0.262,0,0,0,0,0,0,-0.2495,-0.2512,-0.2638,-0.258,-0.2596,-0.2618,-0.265,-0.2651,-0.2657,-0.2628,-0.2617,-0.2656,-0.2584,-0.2574,-0.258,-0.2622,-0.2522,-0.252,-0.2608,-0.2613,-0.2618,-0.2735,0,0,0,0,0,0,-0.249,-0.251,-0.2517,-0.2581,-0.26,-0.2691,-0.2654,-0.2655,-0.2676,-0.267,-0.2628,-0.2616,-0.2581,-0.2583,-0.2578,-0.2618,-0.2519,-0.2603,-0.261,-0.2617,-0.2726,-0.2743,-0.2758,0,0,0,0,0,-0.2483,-0.2498,-0.2518,-0.2533,-0.2615,-0.2693,-0.2702,-0.2704,-0.2678,-0.2695,-0.2677,-0.2616,-0.2623,-0.2585,-0.2577,-0.2618,-0.26,-0.2608,-0.2616,-0.2719,-0.274,-0.2758,0,0,0,0,0,0,-0.2409,-0.2499,-0.2519,-0.2558,-0.2626,-0.2686,-0.2695,-0.2711,-0.2715,-0.2697,-0.2655,-0.2644,-0.2666,-0.2639,-0.2598,-0.2672,-0.2605,-0.2613,-0.2686,-0.2705,-0.2721,-0.2685,-0.2517,0,0,0,0,0,-0.2407,-0.2438,-0.2535,-0.2562,-0.26,-0.2652,-0.2677,-0.2698,-0.2721,-0.272,-0.2699,-0.2689,-0.2703,-0.2697,-0.2694,-0.273,-0.266,-0.2758,-0.2774,-0.2787,-0.2759,-0.2766,-0.2779,-0.2647,-0.2647,-0.2647,0,0,-0.238,-0.2436,-0.2449,-0.2548,-0.2592,-0.2669,-0.2658,-0.2711,-0.276,-0.2706,-0.2735,-0.2733,-0.2725,-0.2769,-0.2778,-0.2744,-0.2781,-0.2798,-0.2809,-0.2772,-0.2776,-0.2788,-0.2799,-0.2653,-0.2652,-0.2651,0,0,-0.2359,-0.2406,-0.2436,-0.2513,-0.2606,-0.266,-0.2681,-0.276,-0.2773,-0.2826,-0.281,-0.2836,-0.2841,-0.2861,-0.2868,-0.2973,-0.2864,-0.2983,-0.3029,-0.304,-0.3049,-0.3056,-0.2935,-0.2931,-0.2993,-0.2993,-0.2993,0,-0.2327,-0.239,-0.2455,-0.2529,-0.2588,-0.2662,-0.273,-0.2781,-0.2847,-0.2869,-0.2838,-0.2896,-0.2885,-0.2958,-0.2997,-0.3003,-0.2945,-0.2953,-0.3056,-0.3062,-0.3068,-0.2942,-0.2936,-0.3,-0.2999,-0.2998,-0.2998,0,-0.235,-0.2413,-0.2441,-0.2564,-0.264,-0.2707,-0.2818,-0.287,-0.2894,-0.2943,-0.3001,-0.301,-0.3034,-0.3067,-0.3053,-0.3119,-0.3038,-0.3071,-0.2995,-0.3087,-0.2949,-0.294,-0.3009,-0.3007,-0.3005,-0.3003,0,0,-0.2257,-0.2422,-0.243,-0.2499,-0.2666,-0.273,-0.2834,-0.2946,-0.2989,-0.3053,-0.3092,-0.316,-0.3154,-0.3163,-0.3174,-0.319,-0.3171,-0.3145,-0.3143,-0.2998,-0.3091,-0.297,-0.2947,-0.323,-0.3231,-0.3231,-0.2958,0,-0.2256,-0.2361,-0.2462,-0.2583,-0.266,-0.2787,-0.2873,-0.2986,-0.3049,-0.3106,-0.3155,-0.3188,-0.32,-0.3199,-0.3233,-0.3203,-0.3162,-0.3234,-0.3044,-0.3034,-0.2898,-0.294,-0.283,-0.2574,-0.2949,-0.2947,-0.2946,0,-0.2255,-0.2329,-0.242,-0.2596,-0.2639,-0.272,-0.2862,-0.2952,-0.3079,-0.3119,-0.319,-0.3216,-0.3263,-0.3244,-0.3212,-0.3258,-0.3159,-0.3116,-0.3107,-0.2941,-0.2901,-0.2557,-0.2543,-0.2559,-0.2931,-0.2932,-0.2933,0,-0.2136,-0.2311,-0.2362,-0.2429,-0.263,-0.2682,-0.2781,-0.2932,-0.2997,-0.3107,-0.3139,-0.322,-0.3207,-0.319,-0.3109,-0.3159,-0.301,-0.3073,-0.2842,-0.2826,-0.2662,-0.2633,-0.2619,-0.2988,-0.2989,-0.2989,-0.299,0,-0.2101,-0.2156,-0.2302,-0.2338,-0.2405,-0.2588,-0.2662,-0.2773,-0.2913,-0.2977,-0.3111,-0.3132,-0.3197,-0.3143,-0.3082,-0.2908,-0.2979,-0.2811,-0.2769,-0.2695,-0.2674,-0.2624,-0.2675,-0.2979,-0.2981,-0.2983,-0.2985,0,-0.1973,-0.2068,-0.2137,-0.2299,-0.2346,-0.2382,-0.257,-0.2625,-0.2784,-0.2861,-0.2888,-0.303,-0.2957,-0.2941,-0.2849,-0.2819,-0.2644,-0.259,-0.2429,-0.2377,-0.224,-0.2302,-0.2173,-0.2108,-0.2321,-0.2317,-0.2313,0,-0.1929,-0.1937,-0.2041,-0.2053,-0.2117,-0.2212,-0.2273,-0.2495,-0.2574,-0.278,-0.2791,-0.2783,-0.2748,-0.2571,-0.2472,-0.2285,-0.2364,-0.2112,-0.2225,-0.2186,-0.2225,-0.2294,-0.2257,-0.201,-0.2004,-0.2,-0.1996,0,-0.1833,-0.1832,-0.1865,-0.1863,-0.1907,-0.1978,-0.2099,-0.2162,-0.2414,-0.2504,-0.2587,-0.258,-0.2426,-0.2233,-0.2021,-0.194,-0.2111,-0.2007,-0.2052,-0.2036,-0.2025,-0.1957,-0.2156,-0.1954,-0.1958,-0.1961,-0.1963,-0.1965,-0.1731,-0.1694,-0.1692,-0.169,-0.1713,-0.1738,-0.1749,-0.191,-0.2012,-0.2141,-0.2283,-0.221,-0.2108,-0.1805,-0.1728,-0.1599,-0.1693,-0.1614,-0.1687,-0.1756,-0.1735,-0.1777,-0.1511,-0.1513,-0.1514,-0.1516,-0.1517,0,-0.1633,-0.1583,-0.1544,-0.1522,-0.1465,-0.1538,-0.1624,-0.1626,-0.1682,-0.1792,-0.1848,-0.1722,-0.1574,-0.1507,-0.1389,-0.1343,-0.1363,-0.1355,-0.147,-0.1445,-0.1526,-0.1559,-0.1193,-0.1193,-0.1193,-0.1193,-0.1193,-0.1193,-0.1577,-0.1488,-0.1453,-0.1304,-0.1266,-0.1167,-0.1173,-0.1188,-0.1232,-0.119,-0.1135,-0.1142,-0.1158,-0.1415,-0.1398,-0.1337,-0.1367,-0.1285,-0.1348,-0.1478,-0.1511,-0.1543,-0.1589,-0.1235,-0.1235,-0.1208,-0.1208,-0.1209]},{"header":{"parameterUnit":"m.s-1","parameterCategory":2,"la1":30.2991,"la2":30.254,"lo1":-89.0895,"lo2":-89.0444,"dy":0.0017,"dx":0.0017,"nx":28,"ny":28,"refTime":"2024-06-22T21:00:00:Z","depth":"0","parameterNumber":3,"parameterNumberName":"V-component_of_CURRENTS"},"data":[0,0,0,0,0,0,0,0,0,0,0,0,0,0,0,0,0,0,0,0,0,0,0,0,0,0,0,0,0,0,0,0,0,0,0,0,0,0,0,0,0,0,0,0,0,0,0,0,0,0,0,0,0,0,0,0,0,0,-0.1671,-0.1671,0,-0.1611,-0.161,-0.1609,-0.1517,-0.1516,-0.1514,-0.1513,-0.1298,-0.1294,-0.129,0,0,0,0,0,0,0,0,0,0,0,0,0,-0.1592,-0.1595,-0.1671,-0.1671,-0.167,-0.1611,-0.161,-0.1609,-0.1517,-0.1515,-0.1514,-0.1512,-0.13,-0.1295,-0.1289,0,0,0,0,0,0,0,0,0,0,0,0,0,-0.1586,-0.1595,-0.1671,-0.1619,-0.1614,-0.1611,-0.161,-0.1608,-0.1517,-0.1515,-0.1513,-0.1511,-0.1302,-0.1295,-0.1288,-0.1289,0,0,-0.1268,-0.1265,0,0,0,0,0,0,0,0,-0.1587,-0.1589,-0.1628,-0.1623,-0.1617,-0.1572,-0.1503,-0.1495,-0.1518,-0.1551,-0.1513,-0.151,-0.1379,-0.1366,-0.1357,-0.1278,-0.1269,-0.1268,-0.1264,-0.1261,-0.1259,0,0,0,0,0,0,0,-0.1587,-0.159,-0.1644,-0.1627,-0.1621,-0.156,-0.1558,-0.1501,-0.1472,-0.1548,-0.1542,-0.1541,-0.1374,-0.1364,-0.1351,-0.1266,-0.1268,-0.1262,-0.1258,-0.1255,-0.1122,-0.1122,0,0,0,0,0,0,-0.161,-0.1592,-0.1646,-0.1643,-0.16,-0.1564,-0.1561,-0.1586,-0.1476,-0.1459,-0.1543,-0.1537,-0.1376,-0.1359,-0.1343,-0.1302,-0.1261,-0.1254,-0.1251,-0.1121,-0.1122,-0.1122,0,0,0,0,0,0,-0.1609,-0.1616,-0.1649,-0.1616,-0.1616,-0.1569,-0.1597,-0.1586,-0.1561,-0.1474,-0.1453,-0.1527,-0.1374,-0.1352,-0.1287,-0.1293,-0.1251,-0.1245,-0.1121,-0.1121,-0.1122,-0.124,0,0,0,0,0,0,-0.1607,-0.1617,-0.1638,-0.1619,-0.1619,-0.1651,-0.1599,-0.1586,-0.1565,-0.1557,-0.1454,-0.1433,-0.1371,-0.1298,-0.1281,-0.1283,-0.124,-0.112,-0.1121,-0.1122,-0.1236,-0.1245,-0.1253,0,0,0,0,0,-0.1605,-0.1648,-0.164,-0.1646,-0.1653,-0.1652,-0.1646,-0.1601,-0.1567,-0.1568,-0.1494,-0.1435,-0.1291,-0.1293,-0.1273,-0.1274,-0.112,-0.1121,-0.1122,-0.1232,-0.1243,-0.1253,0,0,0,0,0,0,-0.1613,-0.1643,-0.1633,-0.168,-0.1668,-0.1637,-0.1639,-0.1606,-0.1552,-0.1533,-0.1441,-0.1416,-0.1364,-0.1304,-0.1309,-0.1238,-0.1195,-0.1192,-0.1286,-0.1296,-0.1304,-0.1308,-0.1235,0,0,0,0,0,-0.1633,-0.1678,-0.1675,-0.1709,-0.171,-0.1673,-0.1664,-0.1636,-0.1591,-0.1565,-0.1494,-0.1417,-0.1358,-0.1315,-0.1256,-0.1216,-0.1072,-0.1203,-0.1211,-0.1219,-0.1208,-0.0975,-0.096,-0.1126,-0.1126,-0.1126,0,0,-0.1644,-0.1666,-0.1689,-0.1714,-0.1701,-0.1718,-0.1662,-0.1658,-0.1661,-0.1549,-0.1519,-0.1445,-0.1355,-0.1314,-0.1284,-0.1259,-0.1101,-0.122,-0.1228,-0.1212,-0.0974,-0.0957,-0.0942,-0.1126,-0.1126,-0.1126,0,0,-0.1689,-0.1711,-0.1759,-0.1762,-0.176,-0.1746,-0.1747,-0.1717,-0.1691,-0.1659,-0.158,-0.1494,-0.1422,-0.1344,-0.1299,-0.1313,-0.1157,-0.1314,-0.1351,-0.1126,-0.1109,-0.1093,-0.0902,-0.0867,-0.1313,-0.1313,-0.1313,0,-0.169,-0.1759,-0.1764,-0.1801,-0.181,-0.1765,-0.1796,-0.1776,-0.1723,-0.1696,-0.1661,-0.151,-0.1426,-0.1352,-0.1362,-0.1327,-0.1188,-0.1325,-0.1133,-0.1114,-0.1094,-0.0902,-0.0862,-0.1319,-0.1318,-0.1317,-0.1317,0,-0.1762,-0.1811,-0.1836,-0.1881,-0.1892,-0.1909,-0.1895,-0.1883,-0.1841,-0.1795,-0.1712,-0.1591,-0.1487,-0.1462,-0.1416,-0.1274,-0.1216,-0.1172,-0.1104,-0.1084,-0.0884,-0.084,-0.1327,-0.1325,-0.1323,-0.1322,0,0,-0.1763,-0.1869,-0.1874,-0.1915,-0.1934,-0.1954,-0.197,-0.1958,-0.1956,-0.1862,-0.1808,-0.1692,-0.1599,-0.154,-0.1455,-0.1276,-0.1025,-0.1184,-0.117,-0.099,-0.0536,-0.0528,-0.0478,-0.0941,-0.0934,-0.0928,-0.0454,0,-0.1802,-0.1909,-0.1945,-0.2023,-0.2068,-0.2057,-0.2082,-0.206,-0.2019,-0.1955,-0.1794,-0.1711,-0.1641,-0.158,-0.1391,-0.11,-0.0914,-0.1159,-0.0585,-0.0569,-0.0558,-0.0429,-0.0373,0.0051,-0.041,-0.0403,-0.0398,0,-0.1839,-0.1915,-0.2013,-0.2111,-0.2128,-0.2166,-0.2193,-0.2205,-0.2115,-0.2067,-0.1938,-0.1815,-0.1556,-0.1501,-0.0965,-0.1121,-0.0848,-0.0626,-0.06,-0.0517,-0.0478,-0.0039,0.015,0.0301,-0.0329,-0.0334,-0.0339,0,-0.1833,-0.1953,-0.2042,-0.207,-0.2167,-0.2204,-0.224,-0.2222,-0.2226,-0.2111,-0.2062,-0.1777,-0.1581,-0.1196,-0.0751,-0.0826,-0.0136,-0.0167,0.0088,0.0091,0.0291,0.0299,0.0705,0.0212,0.0211,0.021,0.0208,0,-0.1855,-0.1918,-0.2053,-0.2099,-0.2193,-0.224,-0.2301,-0.2309,-0.2273,-0.2248,-0.2101,-0.1985,-0.1486,-0.1075,-0.0699,-0.0131,-0.0059,0.0131,0.0239,0.0243,0.024,0.0499,0.0521,0.0227,0.0224,0.022,0.0217,0,-0.1821,-0.1913,-0.2015,-0.2148,-0.2196,-0.2252,-0.2355,-0.2389,-0.2365,-0.2315,-0.2266,-0.2005,-0.1455,-0.0956,-0.0265,-0.0045,0.0614,0.0635,0.058,0.0669,0.0935,0.0944,0.1477,0.161,0.0986,0.0989,0.0992,0,-0.1814,-0.1867,-0.2036,-0.2111,-0.2178,-0.2277,-0.2348,-0.2403,-0.2438,-0.2328,-0.2285,-0.1825,-0.1504,-0.0531,0.0087,0.0797,0.0887,0.1104,0.094,0.1007,0.1103,0.1083,0.1152,0.1183,0.1187,0.119,0.1193,0,-0.178,-0.1838,-0.1927,-0.2092,-0.2203,-0.2322,-0.243,-0.2475,-0.2504,-0.2475,-0.2313,-0.2054,-0.1151,-0.0339,0.0522,0.089,0.1187,0.1183,0.1342,0.1366,0.1299,0.1457,0.0768,0.1223,0.122,0.1218,0.1216,0.1215,-0.1727,-0.1784,-0.1918,-0.2067,-0.2192,-0.2339,-0.2421,-0.2527,-0.2576,-0.254,-0.2299,-0.1887,-0.0768,0.0471,0.0855,0.1595,0.1513,0.1703,0.1743,0.174,0.1768,0.1086,0.157,0.1569,0.1568,0.1567,0.1566,0,-0.1679,-0.1773,-0.19,-0.2083,-0.2195,-0.2291,-0.2453,-0.2523,-0.2584,-0.2489,-0.2314,-0.1142,-0.0153,0.0802,0.1928,0.2151,0.218,0.224,0.2264,0.2334,0.1868,0.1764,0.2202,0.2202,0.2201,0.2201,0.2201,0.2201,-0.1663,-0.1769,-0.1861,-0.2041,-0.2156,-0.2301,-0.2386,-0.25,-0.2467,-0.2135,-0.1592,-0.1075,0.0389,0.177,0.2571,0.2614,0.2798,0.2772,0.2878,0.2533,0.2485,0.2438,0.235,0.2904,0.2905,0.3343,0.3347,0.335]}],[{"header":{"parameterUnit":"m.s-1","parameterCategory":2,"la1":30.2991,"la2":30.254,"lo1":-89.0895,"lo2":-89.0444,"dy":0.0017,"dx":0.0017,"nx":28,"ny":28,"refTime":"2024-06-22T21:00:00:Z","depth":"2","parameterNumber":2,"parameterNumberName":"U-component_of_CURRENTS"},"data":[0,0,0,0,0,0,0,0,0,0,0,0,0,0,0,0,0,0,0,0,0,0,0,0,0,0,0,0,0,0,0,0,0,0,0,0,0,0,0,0,0,0,0,0,0,0,0,0,0,0,0,0,0,0,0,0,0,0,-0.2289,-0.2289,0,-0.2295,-0.2295,-0.2295,-0.2303,-0.2303,-0.2303,-0.2302,-0.2357,-0.2359,-0.236,0,0,0,0,0,0,0,0,0,0,0,0,0,-0.2225,-0.2227,-0.2289,-0.2289,-0.2289,-0.2295,-0.2295,-0.2295,-0.2303,-0.2303,-0.2303,-0.2302,-0.2357,-0.2359,-0.236,0,0,0,0,0,0,0,0,0,0,0,0,0,-0.2246,-0.2227,-0.2289,-0.2291,-0.2292,-0.2295,-0.2295,-0.2296,-0.2303,-0.2303,-0.2303,-0.2302,-0.2356,-0.2358,-0.2361,-0.2377,0,0,-0.2368,-0.2369,0,0,0,0,0,0,0,0,-0.2245,-0.2249,-0.2291,-0.2291,-0.2291,-0.2296,-0.2293,-0.2325,-0.2303,-0.2301,-0.2302,-0.2302,-0.234,-0.2344,-0.2347,-0.238,-0.2382,-0.2368,-0.2369,-0.237,-0.2371,0,0,0,0,0,0,0,-0.2244,-0.2248,-0.2293,-0.2291,-0.2291,-0.2272,-0.2276,-0.2298,-0.2324,-0.2301,-0.2301,-0.2298,-0.2341,-0.2345,-0.2349,-0.2383,-0.2368,-0.237,-0.2371,-0.2372,-0.2489,-0.249,0,0,0,0,0,0,-0.2242,-0.2248,-0.2293,-0.2293,-0.2265,-0.2273,-0.2278,-0.2296,-0.2322,-0.2325,-0.2298,-0.2299,-0.2341,-0.2346,-0.2351,-0.2447,-0.237,-0.2373,-0.2374,-0.2487,-0.2489,-0.2491,0,0,0,0,0,0,-0.2242,-0.2247,-0.2293,-0.2267,-0.2271,-0.2275,-0.2296,-0.2297,-0.2305,-0.2319,-0.2324,-0.2306,-0.2341,-0.2348,-0.2388,-0.2446,-0.2374,-0.2376,-0.2485,-0.2487,-0.249,-0.259,0,0,0,0,0,0,-0.224,-0.2248,-0.2263,-0.2268,-0.2273,-0.2308,-0.2296,-0.2297,-0.2302,-0.2303,-0.2328,-0.2332,-0.2342,-0.2384,-0.239,-0.2448,-0.2377,-0.2483,-0.2486,-0.2489,-0.2585,-0.2596,-0.2606,0,0,0,0,0,-0.2238,-0.2255,-0.2264,-0.2269,-0.2294,-0.2308,-0.231,-0.2312,-0.2303,-0.2317,-0.2335,-0.2332,-0.2409,-0.2387,-0.2394,-0.2454,-0.2481,-0.2485,-0.2489,-0.258,-0.2594,-0.2605,0,0,0,0,0,0,-0.2243,-0.2257,-0.2267,-0.2292,-0.2306,-0.2309,-0.2322,-0.2315,-0.2338,-0.2342,-0.235,-0.2357,-0.2412,-0.2412,-0.2388,-0.2494,-0.2446,-0.2451,-0.2513,-0.2526,-0.2536,-0.2528,-0.2379,0,0,0,0,0,-0.225,-0.2251,-0.2281,-0.229,-0.2316,-0.232,-0.2325,-0.2326,-0.2341,-0.235,-0.2375,-0.24,-0.2432,-0.2461,-0.2482,-0.2541,-0.2495,-0.2583,-0.2594,-0.2603,-0.2599,-0.2582,-0.259,-0.2503,-0.2503,-0.2503,0,0,-0.225,-0.2253,-0.2257,-0.2288,-0.2307,-0.2349,-0.2325,-0.2341,-0.237,-0.2354,-0.2417,-0.2432,-0.245,-0.2519,-0.2545,-0.2531,-0.2599,-0.2607,-0.2615,-0.2606,-0.2587,-0.2595,-0.2603,-0.2506,-0.2505,-0.2505,0,0,-0.2239,-0.2271,-0.2279,-0.2303,-0.2328,-0.2355,-0.2363,-0.2394,-0.2415,-0.2463,-0.2465,-0.2514,-0.2563,-0.2603,-0.2623,-0.27,-0.2644,-0.2709,-0.2774,-0.276,-0.2766,-0.2771,-0.2704,-0.2703,-0.2729,-0.2729,-0.273,0,-0.2226,-0.2262,-0.2282,-0.2307,-0.2337,-0.2366,-0.2408,-0.2439,-0.2471,-0.2505,-0.2496,-0.2582,-0.2608,-0.2688,-0.2725,-0.2728,-0.2678,-0.273,-0.2772,-0.2777,-0.278,-0.271,-0.2707,-0.2735,-0.2734,-0.2734,-0.2733,0,-0.2253,-0.2274,-0.2288,-0.2342,-0.2384,-0.2416,-0.2482,-0.2532,-0.2567,-0.2596,-0.2672,-0.2702,-0.276,-0.2782,-0.2784,-0.2843,-0.2782,-0.2775,-0.2739,-0.2795,-0.2717,-0.2712,-0.2742,-0.274,-0.2739,-0.2738,0,0,-0.2214,-0.2289,-0.2291,-0.2323,-0.2407,-0.2441,-0.2532,-0.2623,-0.2671,-0.2728,-0.2786,-0.2869,-0.2884,-0.2905,-0.2917,-0.2914,-0.2909,-0.2864,-0.2861,-0.2793,-0.2824,-0.2732,-0.2716,-0.2902,-0.2902,-0.2902,-0.2751,0,-0.2222,-0.2271,-0.2321,-0.2387,-0.2436,-0.2515,-0.2591,-0.2672,-0.2739,-0.2809,-0.2863,-0.2911,-0.2932,-0.2951,-0.2972,-0.2911,-0.2903,-0.2947,-0.2782,-0.2776,-0.2686,-0.2711,-0.2512,-0.2357,-0.2746,-0.2745,-0.2744,0,-0.2252,-0.2263,-0.2328,-0.2413,-0.245,-0.2505,-0.2645,-0.271,-0.2825,-0.2871,-0.2955,-0.2973,-0.3022,-0.3004,-0.2962,-0.298,-0.2922,-0.2862,-0.2855,-0.273,-0.2677,-0.2368,-0.2332,-0.2735,-0.2736,-0.2736,-0.2737,0,-0.2234,-0.2288,-0.2335,-0.2361,-0.246,-0.2518,-0.2602,-0.2727,-0.2782,-0.2897,-0.2914,-0.3,-0.2993,-0.2968,-0.2906,-0.2919,-0.2799,-0.2804,-0.2661,-0.2651,-0.2429,-0.24,-0.2762,-0.2762,-0.2763,-0.2763,-0.2763,0,-0.2245,-0.2268,-0.2317,-0.2341,-0.2393,-0.2489,-0.2575,-0.2677,-0.278,-0.2811,-0.2928,-0.2937,-0.2975,-0.2931,-0.289,-0.2752,-0.2798,-0.2658,-0.2615,-0.2456,-0.2433,-0.2727,-0.2725,-0.2757,-0.2759,-0.276,-0.2761,0,-0.2209,-0.2254,-0.2306,-0.2383,-0.2385,-0.2443,-0.2547,-0.2591,-0.2696,-0.2728,-0.275,-0.286,-0.2794,-0.2791,-0.2714,-0.2686,-0.2588,-0.253,-0.2322,-0.2259,-0.2445,-0.245,-0.234,-0.2335,-0.2332,-0.2329,-0.2326,0,-0.2212,-0.2205,-0.229,-0.2319,-0.2346,-0.2402,-0.2414,-0.254,-0.2567,-0.2654,-0.2638,-0.2637,-0.2606,-0.2493,-0.2425,-0.2311,-0.2436,-0.2085,-0.2106,-0.2437,-0.2406,-0.2417,-0.2427,-0.1829,-0.1822,-0.1817,-0.1813,0,-0.2156,-0.2189,-0.222,-0.2246,-0.2275,-0.2324,-0.2355,-0.2333,-0.2424,-0.2399,-0.2402,-0.2392,-0.2323,-0.2162,-0.2057,-0.1979,-0.21,-0.1974,-0.2354,-0.1991,-0.195,-0.1923,-0.1949,-0.1766,-0.1771,-0.1774,-0.1777,-0.1778,-0.2092,-0.21,-0.2127,-0.2153,-0.2186,-0.2203,-0.2193,-0.2166,-0.2117,-0.201,-0.2114,-0.1992,-0.2021,-0.175,-0.1669,-0.1611,-0.1751,-0.1689,-0.1707,-0.173,-0.1723,-0.1681,-0.144,-0.1443,-0.1445,-0.1447,-0.1449,0,-0.1962,-0.1974,-0.2009,-0.206,-0.2034,-0.214,-0.2086,-0.1989,-0.1803,-0.1713,-0.1644,-0.1454,-0.1344,-0.1387,-0.1221,-0.1209,-0.1216,-0.117,-0.1187,-0.1231,-0.1271,-0.1246,-0.0833,-0.0832,-0.0831,-0.083,0,0,-0.1882,-0.1839,-0.1848,-0.1812,-0.1879,-0.1855,-0.1801,-0.1627,-0.1493,-0.1207,-0.1098,-0.1159,-0.1268,-0.1016,-0.0987,-0.0888,-0.1042,-0.0831,-0.1312,-0.1368,-0.1407,-0.1546,-0.1551,0,0,0,0,0]},{"header":{"parameterUnit":"m.s-1","parameterCategory":2,"la1":30.2991,"la2":30.254,"lo1":-89.0895,"lo2":-89.0444,"dy":0.0017,"dx":0.0017,"nx":28,"ny":28,"refTime":"2024-06-22T21:00:00:Z","depth":"2","parameterNumber":3,"parameterNumberName":"V-component_of_CURRENTS"},"data":[0,0,0,0,0,0,0,0,0,0,0,0,0,0,0,0,0,0,0,0,0,0,0,0,0,0,0,0,0,0,0,0,0,0,0,0,0,0,0,0,0,0,0,0,0,0,0,0,0,0,0,0,0,0,0,0,0,0,0.0121,0.0122,0,0.0221,0.0223,0.0224,0.0298,0.0298,0.0298,0.0299,0.0445,0.0448,0.0452,0,0,0,0,0,0,0,0,0,0,0,0,0,0.0071,0.0071,0.0121,0.0122,0.0123,0.0221,0.0223,0.0224,0.0298,0.0298,0.0299,0.0299,0.0444,0.0448,0.0452,0,0,0,0,0,0,0,0,0,0,0,0,0,0.0126,0.0071,0.0121,0.017,0.0175,0.0221,0.0223,0.0225,0.0297,0.0298,0.0299,0.0299,0.0442,0.0447,0.0453,0.0473,0,0,0.0469,0.0471,0,0,0,0,0,0,0,0,0.0123,0.0128,0.0162,0.0167,0.0172,0.0245,0.0258,0.0309,0.0297,0.0254,0.0299,0.03,0.038,0.0391,0.0411,0.0479,0.0486,0.0469,0.0472,0.0475,0.0476,0,0,0,0,0,0,0,0.0119,0.0125,0.0163,0.0163,0.0169,0.0213,0.0221,0.0269,0.0315,0.0257,0.0262,0.0269,0.0384,0.0406,0.0415,0.0488,0.0469,0.0474,0.0477,0.0479,0.0589,0.0589,0,0,0,0,0,0,0.0097,0.012,0.016,0.0166,0.0146,0.0213,0.0222,0.0223,0.0314,0.0327,0.0269,0.0272,0.0397,0.0409,0.0421,0.0448,0.0475,0.048,0.0483,0.0589,0.0589,0.0589,0,0,0,0,0,0,0.0095,0.0099,0.0156,0.0144,0.0154,0.0212,0.0214,0.0225,0.0247,0.0321,0.0336,0.0278,0.0397,0.0413,0.0458,0.0455,0.0482,0.0487,0.0589,0.0589,0.0589,0.0505,0,0,0,0,0,0,0.0093,0.0098,0.0091,0.0142,0.0154,0.0173,0.0213,0.0226,0.0249,0.0255,0.0334,0.0349,0.0399,0.0449,0.0463,0.0462,0.0491,0.059,0.0589,0.0589,0.0508,0.0502,0.0497,0,0,0,0,0,0.0091,0.0077,0.009,0.0095,0.0142,0.0172,0.0182,0.0228,0.0248,0.0251,0.0305,0.0346,0.0456,0.0453,0.0469,0.047,0.059,0.0589,0.0589,0.0511,0.0503,0.0497,0,0,0,0,0,0,0.0056,0.0084,0.0099,0.0096,0.0126,0.0183,0.0186,0.022,0.0266,0.0271,0.0344,0.0362,0.0397,0.0445,0.0439,0.0501,0.053,0.0532,0.0465,0.0458,0.0453,0.0435,0.0495,0,0,0,0,0,0.0041,0.0037,0.0075,0.0073,0.0079,0.0131,0.0148,0.0179,0.0226,0.0246,0.0301,0.0359,0.0408,0.044,0.0486,0.0522,0.056,0.0533,0.0528,0.0522,0.0519,0.0568,0.0566,0.0587,0.0587,0.0587,0,0,0.0029,0.0042,0.0041,0.0065,0.0089,0.0089,0.0143,0.016,0.0172,0.0255,0.0283,0.0337,0.041,0.0447,0.0468,0.0488,0.0534,0.0522,0.0517,0.0516,0.0567,0.0565,0.0563,0.0587,0.0587,0.0587,0,0,-0.0008,0.0007,-0.0014,0.0,0.0025,0.0058,0.0057,0.0106,0.0137,0.0171,0.0232,0.0285,0.0355,0.0413,0.0451,0.0443,0.0495,0.0454,0.0421,0.0468,0.0466,0.0466,0.0499,0.0502,0.0459,0.0459,0.0459,0,-0.0022,-0.005,-0.0013,-0.0032,-0.0032,0.0034,0.0012,0.0056,0.0119,0.0143,0.0165,0.028,0.0341,0.0403,0.04,0.0431,0.0456,0.044,0.0459,0.0459,0.046,0.0495,0.0499,0.0455,0.0455,0.0456,0.0456,0,-0.0079,-0.01,-0.0114,-0.012,-0.0108,-0.0117,-0.0064,-0.0038,0.0004,0.0058,0.0121,0.021,0.0281,0.031,0.0354,0.0394,0.0408,0.0437,0.0472,0.0452,0.049,0.0496,0.0449,0.0451,0.0452,0.0453,0,0,-0.0112,-0.015,-0.0155,-0.0187,-0.0161,-0.0163,-0.0141,-0.0103,-0.0084,-0.0005,0.003,0.0127,0.0187,0.0233,0.0306,0.0357,0.0383,0.039,0.0394,0.0414,0.0469,0.0512,0.0523,0.0408,0.0409,0.041,0.0489,0,-0.017,-0.0245,-0.0235,-0.0294,-0.0331,-0.0276,-0.0267,-0.0214,-0.0144,-0.0087,0.003,0.0092,0.0157,0.0193,0.0252,0.0356,0.0396,0.0358,0.0494,0.0498,0.0531,0.0531,0.0498,0.0569,0.0495,0.0496,0.0497,0,-0.0237,-0.0278,-0.0356,-0.0405,-0.0415,-0.0427,-0.0402,-0.0379,-0.0266,-0.021,-0.011,-0.001,0.0098,0.0146,0.0305,0.0273,0.0353,0.0431,0.0437,0.0511,0.0552,0.0582,0.0584,0.0508,0.0507,0.0506,0.0505,0,-0.0301,-0.037,-0.0441,-0.0456,-0.0481,-0.0497,-0.0497,-0.0415,-0.0393,-0.0271,-0.0226,-0.0085,0.0004,0.0117,0.0295,0.029,0.0464,0.0482,0.0594,0.0597,0.0617,0.0621,0.057,0.057,0.057,0.0569,0.0569,0,-0.0379,-0.0436,-0.0482,-0.0521,-0.0594,-0.0577,-0.0606,-0.0567,-0.0494,-0.0451,-0.0293,-0.0196,-0.0001,0.0143,0.0269,0.046,0.0446,0.0588,0.0625,0.0586,0.0587,0.0574,0.0574,0.0572,0.0572,0.0571,0.0571,0,-0.044,-0.0472,-0.0563,-0.0616,-0.063,-0.0681,-0.0701,-0.07,-0.062,-0.0552,-0.0516,-0.0283,-0.0079,0.0107,0.0325,0.0444,0.0606,0.0668,0.0607,0.0636,0.0706,0.07,0.0791,0.0793,0.0795,0.0797,0.0798,0,-0.0487,-0.0533,-0.0629,-0.0685,-0.0715,-0.0773,-0.0796,-0.0763,-0.0747,-0.0578,-0.0542,-0.0315,-0.0106,0.0233,0.0453,0.0667,0.0662,0.0759,0.0754,0.0704,0.0731,0.0722,0.0714,0.0739,0.074,0.0741,0.0741,0,-0.0558,-0.0585,-0.0656,-0.0761,-0.0822,-0.0884,-0.0913,-0.0924,-0.0844,-0.0757,-0.0545,-0.0353,0.0014,0.0313,0.0579,0.0694,0.0721,0.078,0.0755,0.0692,0.0663,0.0687,0.0679,0.0747,0.0746,0.0746,0.0745,0.0745,-0.0599,-0.0662,-0.0742,-0.0843,-0.091,-0.0962,-0.1001,-0.0978,-0.0933,-0.0753,-0.057,-0.0244,0.0036,0.0467,0.0655,0.0817,0.0813,0.085,0.0844,0.0839,0.0822,0.08,0.0904,0.0905,0.0905,0.0905,0.0905,0,-0.064,-0.0706,-0.081,-0.0923,-0.0987,-0.1015,-0.1046,-0.1021,-0.0937,-0.0705,-0.0481,-0.0138,0.0182,0.0462,0.0746,0.0911,0.0875,0.0914,0.084,0.0834,0.0829,0.0808,0.0889,0.0889,0.089,0.089,0,0,-0.0662,-0.0754,-0.0805,-0.0937,-0.1016,-0.1077,-0.109,-0.0997,-0.0838,-0.0572,-0.0328,-0.0073,0.0264,0.0443,0.0631,0.0792,0.0768,0.0789,0.0784,0.0668,0.0662,0.0772,0.0733,0,0,0,0,0]}],[{"header":{"parameterUnit":"m.s-1","parameterCategory":2,"la1":30.2991,"la2":30.254,"lo1":-89.0895,"lo2":-89.0444,"dy":0.0017,"dx":0.0017,"nx":28,"ny":28,"refTime":"2024-06-22T21:00:00:Z","depth":"4","parameterNumber":2,"parameterNumberName":"U-component_of_CURRENTS"},"data":[0,0,0,0,0,0,0,0,0,0,0,0,0,0,0,0,0,0,0,0,0,0,0,0,0,0,0,0,0,0,0,0,0,0,0,0,0,0,0,0,0,0,0,0,0,0,0,0,0,0,0,0,0,0,0,0,0,0,-0.1506,-0.1507,0,-0.1589,-0.159,-0.1591,-0.1638,-0.1638,-0.1639,-0.1639,-0.1722,-0.1724,-0.1726,0,0,0,0,0,0,0,0,0,0,0,0,0,-0.1412,-0.1413,-0.1506,-0.1507,-0.1508,-0.1589,-0.159,-0.1591,-0.1638,-0.1638,-0.1639,-0.1639,-0.1722,-0.1724,-0.1727,0,0,0,0,0,0,0,0,0,0,0,0,0,-0.1468,-0.1413,-0.1506,-0.1542,-0.1547,-0.1589,-0.159,-0.1592,-0.1638,-0.1638,-0.1639,-0.1639,-0.1721,-0.1724,-0.1727,-0.1737,0,0,-0.1736,-0.1737,0,0,0,0,0,0,0,0,-0.1465,-0.1472,-0.1536,-0.154,-0.1545,-0.1605,-0.1588,-0.1641,-0.1638,-0.1602,-0.1639,-0.1639,-0.1684,-0.169,-0.1703,-0.1741,-0.1745,-0.1736,-0.1738,-0.1739,-0.174,0,0,0,0,0,0,0,-0.1461,-0.1468,-0.1538,-0.1537,-0.1543,-0.1563,-0.1571,-0.1598,-0.1639,-0.1605,-0.1609,-0.162,-0.1686,-0.17,-0.1705,-0.1746,-0.1736,-0.1739,-0.1741,-0.1742,-0.1886,-0.1888,0,0,0,0,0,0,-0.1452,-0.1465,-0.1535,-0.1541,-0.1507,-0.1564,-0.1573,-0.1584,-0.1638,-0.1647,-0.162,-0.1622,-0.1694,-0.1702,-0.1708,-0.1805,-0.1739,-0.1742,-0.1744,-0.1884,-0.1887,-0.1889,0,0,0,0,0,0,-0.1449,-0.1457,-0.1532,-0.1505,-0.1517,-0.1566,-0.1577,-0.1586,-0.1627,-0.165,-0.1659,-0.1656,-0.1695,-0.1704,-0.1765,-0.1805,-0.1743,-0.1746,-0.1882,-0.1885,-0.1888,-0.1945,0,0,0,0,0,0,-0.1446,-0.1456,-0.1473,-0.1505,-0.1518,-0.1582,-0.1577,-0.1587,-0.1632,-0.1637,-0.1683,-0.169,-0.1696,-0.1761,-0.1768,-0.1808,-0.1748,-0.1879,-0.1883,-0.1887,-0.1941,-0.195,-0.1958,0,0,0,0,0,-0.1443,-0.1464,-0.1473,-0.1482,-0.1535,-0.1584,-0.1594,-0.1628,-0.1634,-0.1664,-0.1696,-0.169,-0.1791,-0.1765,-0.1773,-0.1815,-0.1877,-0.1882,-0.1887,-0.1937,-0.1948,-0.1958,0,0,0,0,0,0,-0.1435,-0.1471,-0.1482,-0.1514,-0.1557,-0.1593,-0.1624,-0.1644,-0.1692,-0.1703,-0.1716,-0.1727,-0.1794,-0.1799,-0.177,-0.1869,-0.1833,-0.1839,-0.1868,-0.1879,-0.1887,-0.1879,-0.1751,0,0,0,0,0,-0.1439,-0.1465,-0.1503,-0.1534,-0.1554,-0.1593,-0.162,-0.1647,-0.1687,-0.171,-0.1742,-0.1778,-0.1815,-0.1843,-0.1874,-0.1929,-0.191,-0.1962,-0.197,-0.1978,-0.1977,-0.1984,-0.1992,-0.1904,-0.1904,-0.1904,0,0,-0.1444,-0.1469,-0.1484,-0.1534,-0.1566,-0.1611,-0.1611,-0.1666,-0.1713,-0.1711,-0.1789,-0.1811,-0.1836,-0.1899,-0.193,-0.1912,-0.1993,-0.1983,-0.1989,-0.1985,-0.1989,-0.1998,-0.2005,-0.1908,-0.1907,-0.1907,0,0,-0.1463,-0.149,-0.1517,-0.1557,-0.1615,-0.1643,-0.1664,-0.172,-0.1758,-0.1829,-0.1838,-0.1885,-0.1948,-0.1973,-0.1991,-0.2066,-0.2036,-0.2082,-0.2122,-0.2129,-0.2136,-0.2141,-0.2122,-0.2125,-0.2089,-0.2089,-0.2089,0,-0.1471,-0.1506,-0.1536,-0.1578,-0.1616,-0.166,-0.1706,-0.1753,-0.1827,-0.1859,-0.1866,-0.1958,-0.1981,-0.2044,-0.2074,-0.2084,-0.2072,-0.2079,-0.2138,-0.2143,-0.2148,-0.2127,-0.213,-0.2092,-0.2092,-0.2091,-0.2091,0,-0.1503,-0.1546,-0.157,-0.1633,-0.1681,-0.1732,-0.1795,-0.1855,-0.19,-0.1937,-0.2018,-0.2051,-0.2098,-0.2121,-0.2124,-0.2178,-0.2152,-0.2143,-0.2105,-0.2159,-0.2134,-0.2136,-0.2097,-0.2096,-0.2095,-0.2094,0,0,-0.1482,-0.1572,-0.1585,-0.1624,-0.1716,-0.1756,-0.1845,-0.1924,-0.1975,-0.2047,-0.2103,-0.2175,-0.2182,-0.2203,-0.2213,-0.2228,-0.2252,-0.2206,-0.2204,-0.2174,-0.2249,-0.2083,-0.2069,-0.2252,-0.2253,-0.2253,-0.2215,0,-0.1501,-0.1573,-0.1623,-0.1709,-0.1751,-0.1827,-0.19,-0.1982,-0.2047,-0.2114,-0.2158,-0.2213,-0.2217,-0.224,-0.226,-0.2254,-0.2261,-0.2261,-0.2212,-0.221,-0.2045,-0.2067,-0.2256,-0.2217,-0.2217,-0.2217,-0.2217,0,-0.1512,-0.1561,-0.1638,-0.1741,-0.1767,-0.1829,-0.1943,-0.2013,-0.2113,-0.2164,-0.2226,-0.2254,-0.2303,-0.2289,-0.2305,-0.2305,-0.2285,-0.2272,-0.227,-0.2094,-0.2047,-0.2154,-0.222,-0.222,-0.222,-0.222,-0.2219,0,-0.1465,-0.1574,-0.1632,-0.167,-0.1791,-0.1847,-0.1912,-0.2023,-0.2071,-0.2185,-0.2216,-0.2289,-0.2309,-0.2315,-0.2301,-0.2307,-0.2291,-0.229,-0.2121,-0.2109,-0.2244,-0.2238,-0.2292,-0.2292,-0.2292,-0.2292,-0.2293,0,-0.1452,-0.1506,-0.1616,-0.1648,-0.1717,-0.1817,-0.1891,-0.1977,-0.2071,-0.2101,-0.222,-0.2236,-0.2317,-0.2319,-0.2306,-0.2202,-0.2292,-0.2118,-0.2086,-0.2269,-0.2267,-0.2244,-0.2239,-0.2291,-0.2291,-0.2292,-0.2292,0,-0.1389,-0.1468,-0.1531,-0.1653,-0.1693,-0.1736,-0.1845,-0.1879,-0.2001,-0.2041,-0.2071,-0.2191,-0.2191,-0.2236,-0.2238,-0.2173,-0.2117,-0.206,-0.2239,-0.2221,-0.1931,-0.193,-0.186,-0.1854,-0.1849,-0.1844,-0.184,0,-0.1358,-0.1386,-0.15,-0.1521,-0.1575,-0.1651,-0.1685,-0.1821,-0.1841,-0.1977,-0.1961,-0.2032,-0.2085,-0.1954,-0.2032,-0.1988,-0.1969,-0.1933,-0.1946,-0.1909,-0.1886,-0.1894,-0.19,-0.1832,-0.1831,-0.1829,-0.1828,0,-0.1286,-0.1333,-0.1378,-0.1413,-0.1453,-0.1485,-0.1542,-0.1541,-0.1671,-0.1803,-0.1796,-0.1812,-0.1809,-0.1829,-0.181,-0.1784,-0.1956,-0.1878,-0.1889,-0.1901,-0.1874,-0.1859,-0.1871,-0.181,-0.1812,-0.1814,-0.1815,0,-0.1219,-0.1221,-0.1267,-0.1288,-0.132,-0.1289,-0.1347,-0.1361,-0.1405,-0.1565,-0.1552,-0.1648,-0.1765,-0.1718,-0.1698,-0.1662,-0.1641,-0.1595,-0.1621,-0.1642,-0.1591,-0.1527,-0.1316,0,0,0,0,0,-0.114,-0.1125,-0.1133,-0.1136,-0.1152,-0.1171,-0.1232,-0.1293,-0.1421,-0.1356,-0.1452,-0.1445,-0.1448,-0.1511,-0.1427,-0.1592,-0.1642,-0.1488,-0.16,-0.1708,-0.173,-0.1692,0,0,0,0,0,0,-0.1085,-0.1093,-0.1091,-0.0993,-0.0966,-0.0964,-0.0994,-0.1085,-0.1061,-0.1212,-0.1217,-0.1347,-0.1367,-0.1468,-0.1397,-0.1411,-0.1446,-0.156,-0.1555,-0.1697,-0.1716,-0.1733,-0.1702,0,0,0,0,0]},{"header":{"parameterUnit":"m.s-1","parameterCategory":2,"la1":30.2991,"la2":30.254,"lo1":-89.0895,"lo2":-89.0444,"dy":0.0017,"dx":0.0017,"nx":28,"ny":28,"refTime":"2024-06-22T21:00:00:Z","depth":"4","parameterNumber":3,"parameterNumberName":"V-component_of_CURRENTS"},"data":[0,0,0,0,0,0,0,0,0,0,0,0,0,0,0,0,0,0,0,0,0,0,0,0,0,0,0,0,0,0,0,0,0,0,0,0,0,0,0,0,0,0,0,0,0,0,0,0,0,0,0,0,0,0,0,0,0,0,0.0099,0.0099,0,0.0169,0.017,0.0171,0.0223,0.0223,0.0224,0.0224,0.0332,0.0335,0.0337,0,0,0,0,0,0,0,0,0,0,0,0,0,0.0066,0.0066,0.0098,0.0099,0.01,0.0169,0.017,0.0172,0.0223,0.0223,0.0224,0.0224,0.0331,0.0334,0.0338,0,0,0,0,0,0,0,0,0,0,0,0,0,0.0104,0.0066,0.0098,0.0132,0.0136,0.0169,0.017,0.0172,0.0223,0.0223,0.0224,0.0224,0.033,0.0334,0.0338,0.0355,0,0,0.035,0.0352,0,0,0,0,0,0,0,0,0.0102,0.0106,0.0127,0.013,0.0134,0.0186,0.0198,0.0234,0.0223,0.0192,0.0224,0.0224,0.0285,0.0293,0.0308,0.036,0.0365,0.0351,0.0353,0.0355,0.0356,0,0,0,0,0,0,0,0.0099,0.0103,0.0129,0.0127,0.0132,0.0164,0.0169,0.0206,0.0238,0.0195,0.0198,0.0203,0.0288,0.0304,0.0311,0.0367,0.035,0.0354,0.0356,0.0358,0.0462,0.0462,0,0,0,0,0,0,0.0083,0.01,0.0126,0.0131,0.0116,0.0164,0.017,0.0171,0.0237,0.0247,0.0202,0.0205,0.0297,0.0306,0.0315,0.0347,0.0355,0.0358,0.0361,0.0461,0.0462,0.0462,0,0,0,0,0,0,0.0082,0.0084,0.0124,0.0116,0.0123,0.0163,0.0164,0.0172,0.019,0.0242,0.0253,0.0212,0.0297,0.0309,0.0349,0.0351,0.036,0.0364,0.0461,0.0462,0.0462,0.0407,0,0,0,0,0,0,0.008,0.0083,0.0079,0.0114,0.0122,0.0138,0.0164,0.0173,0.0191,0.0195,0.0254,0.0264,0.0299,0.0343,0.0353,0.0357,0.0367,0.0461,0.0461,0.0462,0.0408,0.0405,0.0403,0,0,0,0,0,0.0079,0.007,0.0078,0.0081,0.0114,0.0137,0.0144,0.0176,0.0191,0.0195,0.0238,0.0262,0.0355,0.0346,0.0358,0.0363,0.046,0.0461,0.0462,0.0409,0.0406,0.0403,0,0,0,0,0,0,0.0058,0.0075,0.0085,0.0083,0.0105,0.0145,0.0149,0.0173,0.021,0.0214,0.0266,0.028,0.0313,0.0348,0.0338,0.0397,0.0412,0.0415,0.0368,0.0365,0.0362,0.0341,0.037,0,0,0,0,0,0.0048,0.0043,0.007,0.0068,0.0075,0.0111,0.0124,0.0146,0.0182,0.0198,0.0239,0.0286,0.0326,0.0352,0.0388,0.0422,0.0444,0.0435,0.0432,0.043,0.0422,0.0457,0.0456,0.0465,0.0465,0.0465,0,0,0.0039,0.0047,0.0046,0.0063,0.0081,0.0082,0.0121,0.0135,0.0143,0.0204,0.0229,0.0274,0.0331,0.0366,0.0385,0.0397,0.0439,0.0431,0.0428,0.0421,0.0457,0.0456,0.0455,0.0466,0.0465,0.0465,0,0,0.0013,0.0024,0.0009,0.0019,0.0038,0.0062,0.0062,0.01,0.0124,0.0153,0.0199,0.0248,0.0304,0.0351,0.0382,0.0389,0.0418,0.0401,0.0378,0.0412,0.0411,0.041,0.043,0.0432,0.0407,0.0406,0.0406,0,0.0001,-0.0019,0.001,-0.0004,-0.0005,0.0046,0.0029,0.0064,0.0112,0.0131,0.0151,0.0247,0.0297,0.0351,0.0355,0.0383,0.0397,0.0382,0.0406,0.0406,0.0407,0.0428,0.043,0.0404,0.0404,0.0404,0.0405,0,-0.0038,-0.0056,-0.0065,-0.007,-0.0061,-0.0067,-0.0026,-0.0005,0.0029,0.007,0.0125,0.0202,0.026,0.0289,0.0325,0.0361,0.0367,0.0391,0.0408,0.0402,0.0425,0.0429,0.04,0.0401,0.0402,0.0403,0,0,-0.0065,-0.009,-0.0096,-0.0124,-0.0102,-0.0105,-0.0087,-0.0058,-0.0046,0.0023,0.0048,0.0139,0.019,0.0228,0.0291,0.0332,0.0354,0.0357,0.036,0.0364,0.0411,0.0398,0.0401,0.0374,0.0374,0.0375,0.0423,0,-0.011,-0.0165,-0.0157,-0.0207,-0.0234,-0.0194,-0.0188,-0.0148,-0.0092,-0.005,0.0051,0.0101,0.0166,0.0196,0.0249,0.0327,0.0361,0.0337,0.0427,0.0429,0.0408,0.0404,0.0376,0.0426,0.0427,0.0428,0.0428,0,-0.0157,-0.0192,-0.0252,-0.0297,-0.0305,-0.0318,-0.0304,-0.0287,-0.02,-0.0156,-0.007,0.0011,0.0102,0.0149,0.0277,0.0255,0.032,0.0381,0.0385,0.0393,0.0422,0.0438,0.0435,0.0434,0.0434,0.0433,0.0433,0,-0.0205,-0.0264,-0.0321,-0.0335,-0.0361,-0.0379,-0.0381,-0.0319,-0.0307,-0.0212,-0.0185,-0.006,0.0006,0.0104,0.0253,0.0254,0.0383,0.0403,0.0453,0.0453,0.0474,0.0474,0.0473,0.0473,0.0473,0.0473,0.0473,0,-0.0261,-0.0312,-0.0355,-0.0389,-0.0458,-0.0445,-0.0479,-0.0448,-0.0398,-0.0375,-0.0242,-0.0184,-0.0005,0.0108,0.0222,0.0351,0.0362,0.044,0.0464,0.045,0.0447,0.0476,0.0476,0.0475,0.0474,0.0474,0.0473,0,-0.0302,-0.0332,-0.0408,-0.0461,-0.0485,-0.0527,-0.0564,-0.0572,-0.0514,-0.0476,-0.0452,-0.0282,-0.0125,0.005,0.0229,0.031,0.0434,0.0476,0.044,0.0462,0.0483,0.0479,0.0515,0.0515,0.0515,0.0515,0.0515,0,-0.0331,-0.0371,-0.0461,-0.0511,-0.0542,-0.0603,-0.0639,-0.0627,-0.0622,-0.0524,-0.0505,-0.0342,-0.0211,0.0038,0.0211,0.0413,0.0448,0.049,0.0492,0.0467,0.0487,0.0483,0.048,0.0514,0.0514,0.0514,0.0514,0,-0.038,-0.0407,-0.0464,-0.0559,-0.0626,-0.0697,-0.074,-0.0751,-0.0709,-0.0673,-0.0529,-0.0366,-0.0182,0.0038,0.0202,0.0349,0.0448,0.049,0.0491,0.0493,0.0467,0.0486,0.0483,0.0514,0.0514,0.0514,0.0514,0,-0.0406,-0.0454,-0.0521,-0.0602,-0.0684,-0.0742,-0.0775,-0.076,-0.0754,-0.0642,-0.0594,-0.0368,-0.0231,0.0004,0.0154,0.0299,0.0329,0.0353,0.0362,0.0364,0.0312,0.0258,0.0253,0,0,0,0,0,-0.0426,-0.0477,-0.0559,-0.0644,-0.0717,-0.0757,-0.0813,-0.0826,-0.0797,-0.0706,-0.0646,-0.0464,-0.0193,-0.0061,0.008,0.0132,0.0333,0.0296,0.036,0.0513,0.0513,0.0478,0,0,0,0,0,0,-0.0443,-0.0516,-0.0557,-0.0646,-0.0698,-0.0776,-0.0808,-0.0798,-0.074,-0.068,-0.0527,-0.0446,-0.0178,-0.0258,0.0088,0.0132,0.0183,0.0428,0.043,0.0513,0.0513,0.0513,0.0477,0,0,0,0,0]}]]